RH
91 94 92 89 91 80 79 73 70 66 58 51 43 38 39 40 48 40 33 28 24 22 21 19 17 17 17 17 17 17 20 26 26 24 23 22 22 22 23 23 23 23 23
86 87 87 87 81 73 70 60 50 41 33 28 28 25 24 23 22 26 25 25 26 23 22 21 19 18 18 19 18 19 21 28 27 25 24 23 23 23 24 24 24 24 25
89 92 95 87 85 83 64 53 46 43 36 31 27 25 23 22 21 21 23 24 24 21 18 18 18 18 18 19 20 20 21 29 29 28 26 26 25 25 25 26 27 26 26
91 88 91 92 99 85 57 54 49 42 39 33 29 27 25 24 23 21 19 20 19 19 18 19 20 19 20 22 24 24 23 28 31 31 30 29 28 28 28 28 30 28 27
95 88 90 89 90 70 61 58 53 42 39 36 33 31 29 28 26 26 24 22 22 21 21 21 21 21 22 22 24 27 26 28 32 34 33 32 31 31 30 31 32 32 29
86 84 91 81 77 63 59 59 59 56 52 49 43 40 37 33 31 32 33 28 26 24 24 24 24 24 25 25 25 27 29 30 31 33 35 35 34 34 33 33 34 36 36
81 78 76 75 70 70 70 68 66 63 61 56 51 40 40 38 34 35 38 41 35 42 38 35 39 36 32 30 28 28 29 30 31 32 36 39 39 38 37 36 36 40 43
88 81 77 81 84 84 86 82 77 78 77 76 71 63 58 45 41 47 46 46 54 44 48 61 53 48 48 52 48 44 40 38 38 38 39 44 44 42 41 40 41 61 67
82 80 83 76 76 74 80 79 76 74 71 82 86 84 81 77 67 51 53 60 56 60 70 71 72 61 68 68 70 69 67 66 56 49 47 46 49 49 46 48 68 94 88
82 78 79 81 82 83 78 57 60 66 61 59 62 76 86 94 91 84 72 64 62 72 78 78 79 84 76 68 69 66 69 70 71 71 66 81 93 95 96 96 97 94 88
78 78 77 76 78 80 61 52 55 56 56 55 58 57 60 75 84 95 89 74 67 73 70 80 77 81 87 86 84 77 74 71 74 78 76 92 96 95 87 90 88 92 96
79 79 74 76 78 69 43 42 40 35 31 27 23 22 60 98 98 98 92 88 80 36 59 51 51 62 41 58 78 78 82 80 72 74 80 96 100 97 94 84 81 89 93
75 80 76 78 69 42 31 16 10 9 9 10 13 19 30 44 58 70 79 73 81 40 26 10 18 22 40 25 28 61 80 88 91 79 83 95 97 89 80 87 83 79 73
85 85 78 67 39 14 9 7 6 6 6 6 6 8 12 19 28 57 76 84 71 62 56 34 14 11 19 24 16 16 17 43 81 90 92 90 86 83 79 81 83 77 69
97 81 61 27 10 7 6 6 5 5 5 5 5 5 6 6 8 11 15 26 66 100 93 36 37 20 28 31 26 25 26 28 28 58 79 95 96 96 94 86 86 81 91
79 47 15 8 6 6 6 6 6 5 4 4 4 5 6 6 7 9 14 19 23 39 96 59 36 32 35 35 40 47 46 40 38 43 28 72 80 86 86 90 87 94 90
24 8 6 5 6 6 6 6 5 5 5 5 5 5 6 8 9 13 14 14 15 18 26 17 20 26 35 45 50 62 76 81 75 66 63 49 81 74 73 95 99 95 96
7 5 6 6 7 7 6 6 6 6 5 5 5 5 6 8 10 12 15 15 14 14 39 58 33 32 40 58 68 70 64 73 82 73 64 83 64 77 88 87 99 100 99
6 6 7 7 7 6 6 6 6 7 7 7 7 7 8 10 11 14 16 16 26 77 98 100 83 76 77 92 92 91 79 84 81 87 79 80 79 91 88 99 100 100 100
7 7 8 7 7 7 7 7 8 8 8 9 10 11 11 12 14 16 24 32 38 97 97 97 100 98 98 93 100 98 97 100 98 93 76 86 89 97 98 100 97 99 99
8 8 8 8 9 9 9 10 10 10 11 11 12 13 13 14 16 20 35 38 57 99 98 92 100 98 100 98 98 99 99 97 98 99 95 97 92 95 100 100 99 100 100
10 10 10 10 11 12 12 12 12 13 14 16 15 14 16 16 16 20 26 48 99 100 100 98 100 100 97 99 100 100 99 98 97 97 98 99 99 100 100 100 99 99 99
12 11 12 12 13 14 14 16 18 18 16 17 16 14 12 11 11 13 17 33 78 92 96 95 95 97 98 98 95 99 100 100 99 98 100 100 99 99 99 99 99 100 100
14 14 14 15 16 16 17 18 17 15 14 13 11 10 10 9 10 13 43 67 42 52 50 70 91 94 98 99 99 100 99 99 100 100 100 99 99 99 99 99 100 100 99
17 18 18 17 16 15 13 11 11 10 8 8 8 9 11 11 11 39 87 47 36 40 60 99 88 91 96 99 98 99 99 98 100 100 100 99 99 99 99 99 99 99 99
19 19 17 15 11 8 8 9 9 9 10 12 15 14 12 12 13 23 72 91 70 51 93 98 100 100 100 98 98 99 98 98 99 100 99 98 99 98 98 98 98 99 99
Wind_Speed
8 6 4 3 3 2 2 2 2 3 4 5 5 6 6 7 8 10 11 11 10 10 9 9 9 10 10 10 9 7 6 7 9 11 12 14 15 15 15 14 14 14 14
6 5 4 4 4 3 2 3 3 3 4 4 4 6 5 6 7 10 11 11 11 10 10 10 10 11 11 11 11 10 10 10 11 12 13 15 17 18 18 17 17 17 17
6 5 2 2 3 3 4 4 5 5 6 6 6 6 7 8 8 8 9 11 11 11 11 11 12 12 13 13 13 13 13 13 14 15 15 16 17 18 20 19 19 18 18
7 6 3 1 2 5 5 4 5 5 6 7 8 8 8 9 9 9 9 10 12 13 13 13 14 14 14 15 15 16 16 17 17 17 17 17 18 19 21 22 21 21 20
9 5 4 3 4 5 4 4 5 7 7 9 9 10 10 9 8 8 9 11 12 14 15 15 16 17 16 17 17 18 18 20 20 21 21 20 20 20 21 22 23 22 21
6 8 6 6 6 4 5 6 7 9 10 11 11 10 10 7 6 4 7 9 11 12 14 16 16 16 17 18 18 19 20 22 23 24 24 24 23 21 21 21 23 23 21
9 8 7 6 5 5 6 7 7 8 9 12 13 12 6 10 4 5 8 15 8 15 15 15 20 22 21 21 21 22 23 23 25 26 26 26 25 25 24 23 23 22 22
8 7 7 7 7 7 7 8 9 8 8 11 13 13 9 6 1 14 11 9 14 11 15 23 22 21 22 25 26 27 27 27 27 28 28 28 28 27 27 26 22 21 22
8 6 5 5 6 7 6 9 9 8 8 7 10 8 5 5 25 11 17 7 9 15 22 21 22 23 27 28 28 28 29 31 30 30 30 30 30 29 29 27 23 21 22
8 4 2 4 7 7 9 7 6 6 7 8 8 8 8 11 8 17 15 24 22 25 24 23 21 22 24 26 30 31 30 31 32 33 33 30 28 28 27 25 23 21 23
9 7 3 7 8 8 8 5 4 5 7 8 10 11 11 10 10 15 30 33 33 31 30 28 26 25 26 27 28 30 32 32 33 33 34 31 30 30 29 27 26 24 24
10 10 6 9 8 9 6 4 4 5 6 7 9 10 10 10 16 18 23 28 33 37 34 35 33 30 30 24 23 26 26 31 35 33 34 31 31 30 31 33 29 26 26
12 12 9 8 8 5 4 3 4 5 7 9 11 12 13 14 14 17 20 27 29 34 35 35 33 30 31 30 30 29 33 33 32 33 35 34 33 33 34 33 32 29 31
14 12 9 8 6 4 3 4 5 7 9 10 11 13 14 14 16 17 21 25 33 32 34 36 36 33 33 35 33 30 31 33 36 33 34 37 40 36 34 37 37 34 29
14 11 9 7 5 4 4 4 6 8 10 11 12 13 14 15 16 18 20 22 25 27 33 38 35 38 36 37 38 38 38 37 34 34 40 38 38 39 38 37 35 36 35
13 11 9 7 5 4 4 6 8 9 11 12 14 15 15 16 17 18 20 22 23 28 25 35 39 40 41 41 41 39 38 37 38 36 33 36 38 37 38 38 37 40 34
13 10 8 6 4 4 6 7 9 10 12 13 14 15 16 17 18 20 22 23 25 29 36 42 39 40 40 38 39 36 35 36 37 37 35 33 32 38 39 36 39 41 37
13 10 8 6 4 6 7 9 10 12 14 15 16 16 17 18 20 22 24 26 28 28 31 41 42 42 41 41 43 41 37 35 33 37 35 32 36 32 33 35 42 35 35
11 8 5 4 5 6 7 9 12 14 15 16 17 18 19 20 22 23 25 27 28 27 30 37 46 44 45 43 45 43 42 42 37 37 32 32 30 27 27 34 31 27 29
8 5 3 4 6 8 9 11 13 14 15 16 17 18 19 21 23 25 25 27 28 28 31 36 39 44 43 43 37 41 48 43 43 38 34 35 31 23 24 22 31 29 25
6 3 3 4 7 9 11 12 14 15 17 17 18 19 21 22 23 24 25 29 26 27 30 33 35 39 41 45 40 38 42 45 43 37 30 36 30 32 25 25 18 15 12
4 2 3 5 7 10 12 15 16 16 18 20 22 23 24 25 25 25 26 26 22 26 29 30 36 36 42 38 40 38 35 35 43 35 35 33 30 21 21 17 10 9 9
2 2 4 7 9 11 14 16 17 18 20 22 24 26 27 26 26 28 29 28 27 24 25 30 35 36 38 35 35 34 32 36 33 31 24 15 12 9 9 5 5 7 11
2 3 6 8 10 13 15 17 19 20 21 22 24 26 27 27 27 29 29 31 33 33 33 31 29 34 32 32 32 34 30 29 24 17 14 8 4 7 7 12 12 19 16
3 6 8 11 13 15 17 19 21 23 25 26 27 26 27 30 30 28 30 36 37 36 33 29 28 31 31 30 27 24 19 15 13 7 2 9 14 14 15 19 15 9 6
5 8 10 14 16 17 18 19 21 24 27 29 30 30 30 29 29 29 30 34 38 38 34 34 36 32 30 28 24 20 15 11 9 5 5 9 18 17 12 12 11 9 9
Wind_Direction
153 143 157 162 183 225 232 296 300 309 299 307 302 313 307 296 294 298 308 315 320 322 322 320 320 320 320 319 315 314 316 326 335 339 343 346 348 349 348 344 340 334 328
168 165 199 220 237 242 288 276 289 326 329 328 330 322 318 307 297 292 299 307 314 317 317 315 313 313 313 312 308 307 304 310 320 327 333 337 340 341 342 340 338 333 330
163 166 224 279 277 298 288 310 330 338 332 333 336 329 323 320 317 307 300 304 312 315 315 314 312 311 306 305 302 300 299 304 311 317 320 325 329 332 333 335 333 329 326
177 175 186 195 248 308 299 317 321 325 329 326 325 324 323 320 317 312 307 305 307 307 308 309 309 307 305 301 298 297 298 301 305 308 309 313 319 324 327 328 328 326 325
193 165 206 182 275 282 299 309 317 326 327 324 329 325 327 326 317 307 310 308 308 308 310 313 311 309 304 301 297 295 295 297 300 303 305 309 313 317 319 320 321 321 320
192 188 204 238 287 289 298 313 322 326 329 327 330 332 328 324 325 326 343 344 332 324 321 321 317 314 309 304 298 294 294 294 295 300 303 305 307 307 309 312 313 315 315
218 222 238 257 276 280 290 302 312 319 322 328 333 336 355 339 342 19 329 332 340 329 325 328 324 318 314 309 303 299 298 297 296 297 298 301 302 303 304 307 307 308 307
215 233 251 264 272 280 293 305 308 317 328 331 341 347 346 350 348 311 310 316 316 324 325 318 318 318 320 320 316 311 307 304 301 298 297 297 296 297 299 300 300 300 298
223 230 256 294 317 323 323 318 316 320 329 336 339 350 344 322 324 295 325 311 317 306 316 319 316 312 313 313 316 316 316 314 310 304 299 293 292 293 294 294 295 289 290
202 197 272 322 325 320 322 321 326 327 331 336 339 330 320 312 319 316 310 306 314 313 312 308 312 304 302 303 305 304 306 309 310 309 304 294 286 287 286 286 286 282 284
192 194 252 291 303 311 314 314 315 316 322 327 320 317 310 297 296 300 304 310 311 314 313 309 304 299 290 288 293 296 297 298 302 305 304 295 289 283 280 279 278 278 273
210 231 260 271 289 303 305 317 329 331 328 327 325 320 325 327 314 311 305 305 308 314 313 313 316 319 317 306 294 289 292 293 295 296 295 288 288 284 278 280 275 273 273
221 237 260 267 279 280 298 314 323 326 330 332 334 331 328 326 318 310 306 308 307 308 314 316 319 320 315 317 307 293 285 283 283 288 286 285 282 286 281 273 273 275 277
223 238 244 252 249 260 283 308 321 328 330 327 322 322 323 321 316 310 307 308 312 312 312 316 322 326 323 318 317 312 307 290 283 283 277 280 284 283 284 281 271 276 277
223 223 227 224 227 246 281 312 322 325 324 327 328 327 326 324 319 312 309 310 312 313 312 320 318 321 319 316 316 315 312 310 306 290 283 282 284 282 285 281 271 268 275
205 203 204 207 221 254 293 311 316 322 327 331 333 333 330 325 321 316 313 314 313 310 308 308 314 316 316 315 314 314 311 307 303 299 296 283 280 281 283 271 270 275 263
188 188 194 210 232 268 297 317 323 331 336 337 336 333 328 323 320 320 319 318 316 315 310 313 316 318 319 321 320 320 314 308 302 302 299 285 279 282 282 272 271 269 257
183 189 200 222 258 294 317 325 332 335 335 333 332 330 326 323 323 323 322 322 319 317 321 318 322 324 324 326 329 328 330 324 315 313 298 287 294 284 281 279 279 258 269
184 193 214 258 292 310 324 329 330 331 331 331 330 329 327 326 326 326 324 324 326 324 321 319 317 323 324 326 326 325 328 324 320 320 310 301 300 290 283 265 250 265 250
186 200 234 286 309 320 322 321 322 323 323 326 328 328 327 325 325 324 323 324 324 320 321 318 314 317 319 322 318 323 322 321 318 324 313 304 306 291 285 248 280 268 254
187 208 277 307 314 314 317 321 321 323 323 324 325 324 324 324 324 323 320 321 323 319 318 318 312 313 313 318 321 320 317 318 317 316 316 314 305 291 255 270 259 243 243
189 226 289 311 319 319 322 321 320 321 325 324 322 322 322 326 326 322 318 317 319 314 312 314 311 313 313 315 314 314 317 319 318 317 308 303 292 250 231 252 244 216 206
201 287 310 314 318 321 321 321 324 324 322 320 321 321 321 325 324 320 316 313 314 313 307 307 307 310 311 308 309 311 313 309 311 310 300 268 227 232 227 197 189 199 205
268 308 319 321 321 322 321 320 319 317 315 315 317 318 321 325 327 323 319 313 315 314 318 311 302 305 305 302 303 304 309 313 308 292 258 247 211 141 130 146 170 180 179
317 321 325 326 325 325 322 319 316 316 316 317 316 321 327 327 326 323 313 317 318 318 322 317 310 304 304 291 299 306 310 307 288 272 209 158 152 150 159 146 150 161 163
317 324 328 326 322 318 316 316 317 317 317 318 321 325 325 325 322 318 314 315 315 319 319 319 306 303 305 294 290 286 303 293 280 261 207 174 162 155 130 146 155 159 155